Weather History for Hurlburt Field, FL

Change the Weather History Date:

Wednesday, August 21, 2013

  Actual Average Record
Temperature  
Mean Temperature 80 °F -  
Max Temperature 88 °F 87 °F 93 °F (1997)
Min Temperature 72 °F 72 °F 70 °F (2012)
Cooling Degree Days 14    
Growing Degree Days 30 (Base 50)    
Moisture  
Dew Point 71 °F    
Average Humidity 78    
Maximum Humidity 91    
Minimum Humidity 62    
Precipitation  
Precipitation 0.00 in - - ()
Sea Level Pressure  
Sea Level Pressure 30.09 in    
Wind  
Wind Speed 6 mph (ENE)    
Max Wind Speed 13 mph    
Max Gust Speed -    
Visibility 10 miles    
Events Rain , Thunderstorm    
Averages and records for this station are not official NWS values.
T = Trace of Precipitation, MM = Missing Value Source: NWS Daily Summary

Daily Weather History Graph

Daily Weather History Graph

Search for Another Location

Airport:

Trip Planner

Search our weather history database for the weather conditions in past years. The results will help you decide how hot, cold, wet, or windy it might be!

Date:

Astronomy

Aug. 21, 2013 Rise Set
Actual Time 6:17 AM CDT 7:21 PM CDT
Civil Twilight 5:52 AM CDT 7:46 PM CDT
Nautical Twilight 5:22 AM CDT 8:16 PM CDT
Astronomical Twilight 4:52 AM CDT 8:46 PM CDT
Moon 7:39 PM CDT (8/21) 6:50 AM CDT (8/21)
Length of Visible Light 13h 54m
Length of Day
13h 04m
Waxing Gibbous, 99% of the Moon is Illuminated
Aug 21
Waxing Gibbous
Aug 28
Last Quarter
Sep 5
New
Sep 12
First Quarter
Sep 19
Full

Hourly Weather History & Observations

Time (CDT) Temp. Heat Index Dew Point Humidity Pressure Visibility Wind Dir Wind Speed Gust Speed Precip Events Conditions
12:58 AM 73.9 °F - 70.5 °F 89% 30.10 in 10.0 mi ENE 5.8 mph - N/A   Clear
1:58 AM 73.6 °F - 70.3 °F 90% 30.08 in 10.0 mi East 6.9 mph - N/A   Clear
2:58 AM 73.4 °F - 70.0 °F 89% 30.08 in 10.0 mi East 5.8 mph - N/A   Partly Cloudy
3:42 AM 73.4 °F - 69.8 °F 88% 30.06 in 10.0 mi East 4.6 mph - N/A Rain Light Rain
3:51 AM 73.4 °F - 69.8 °F 88% 30.06 in 10.0 mi East 4.6 mph - N/A   Clear
3:58 AM 73.8 °F - 70.7 °F 90% 30.07 in 10.0 mi East 4.6 mph - 0.00 in   Clear
4:58 AM 74.7 °F - 70.2 °F 86% 30.08 in 10.0 mi NE 4.6 mph - N/A   Mostly Cloudy
5:58 AM 72.5 °F - 69.8 °F 91% 30.09 in 10.0 mi North 3.5 mph - N/A   Scattered Clouds
6:58 AM 72.7 °F - 70.0 °F 91% 30.10 in 10.0 mi NNE 4.6 mph - N/A   Mostly Cloudy
7:58 AM 76.6 °F - 70.7 °F 82% 30.13 in 10.0 mi NE 5.8 mph - N/A   Clear
8:58 AM 79.9 °F - 72.0 °F 77% 30.13 in 10.0 mi ENE 9.2 mph - N/A   Clear
9:58 AM 82.8 °F 88.7 °F 73.2 °F 73% 30.14 in 10.0 mi ESE 8.1 mph - N/A   Clear
10:58 AM 85.3 °F 93.4 °F 74.5 °F 70% 30.15 in 10.0 mi ESE 8.1 mph - N/A   Clear
11:59 AM 87.8 °F 95.6 °F 73.4 °F 62% 30.13 in 10.0 mi Variable 3.5 mph - N/A   Partly Cloudy
12:59 PM 87.8 °F 97.6 °F 75.2 °F 66% 30.10 in 10.0 mi SSE 9.2 mph - N/A   Partly Cloudy
1:55 PM 87.8 °F 95.6 °F 73.4 °F 62% 30.10 in 10.0 mi SSE 10.4 mph - N/A   Partly Cloudy
2:58 PM 87.4 °F 95.8 °F 73.9 °F 64% 30.07 in 10.0 mi SSE 12.7 mph - 0.00 in   Clear
3:58 PM 86.4 °F 95.1 °F 74.7 °F 68% 30.07 in 10.0 mi ESE 4.6 mph - N/A   Partly Cloudy
4:26 PM 84.2 °F 90.9 °F 73.4 °F 70% 30.07 in 10.0 mi NNE 5.8 mph - N/A   Light Drizzle
4:36 PM 84.2 °F 92.3 °F 75.2 °F 74% 30.07 in 10.0 mi North 6.9 mph - N/A   Partly Cloudy
4:58 PM 83.1 °F 88.9 °F 72.7 °F 71% 30.08 in 10.0 mi NNW 8.1 mph - 0.00 in   Partly Cloudy
5:58 PM 79.5 °F - 70.7 °F 74% 30.07 in 10.0 mi North 5.8 mph - N/A   Clear
6:58 PM 78.1 °F - 70.7 °F 78% 30.09 in 10.0 mi NNE 5.8 mph - N/A   Scattered Clouds
7:58 PM 76.6 °F - 70.3 °F 81% 30.09 in 10.0 mi North 5.8 mph - N/A   Clear
8:58 PM 76.5 °F - 70.3 °F 81% 30.11 in 10.0 mi NE 5.8 mph - N/A   Clear
9:58 PM 77.0 °F - 69.3 °F 77% 30.12 in 10.0 mi ENE 3.5 mph - N/A   Clear
10:58 PM 75.7 °F - 68.4 °F 78% 30.11 in 10.0 mi NNE 4.6 mph - N/A   Clear
11:58 PM 75.4 °F - 68.2 °F 78% 30.09 in 10.0 mi ENE 2.3 mph - N/A Thunderstorm Clear